Location: Newark
(43.0000°N, 1.6781°W)
Time: 12:27:59
(UTC+00:00)

LilacSat-2 - Pass Details

Date: 06 December 2022
Orbit: 504 x 522 km, 97.5° (Epoch: 06 February)

Event Time Altitude Azimuth Distance (km) Brightness Sun altitude
Rises 05:03:39 0° 31° (NNE) 2,616 ? -24.7°
Reaches altitude 10° 05:06:30 10° 56° (NE) 1,723 ? -24.2°
Maximum altitude 05:08:42 15° 92° (E) 1,428 ? -23.8°
Drops below altitude 10° 05:10:53 10° 129° (SE) 1,713 ? -23.4°
Sets 05:13:42 0° 153° (SSE) 2,591 ? -22.9°
